Flag for Turkey Weather past 2 weeks in Mersin, Turkey

75 °F

Passing clouds.

Feels Like: 76 °F
Forecast: 65 / 84 °F
Wind: 5 mph from Northeast

Location: Adana / Sakirpasa

Current Time: Oct 4, 2015 at 8:55:34 AM

Latest Report: Oct 4, 2015 at 8:20 AM

Visibility: N/A

Pressure: 30.07 "Hg

Humidity: 78%

Dew point: 68 °F

Location of MersinLocation

Historic Weather in Mersin — Graph


Mersin temperature yesterday

Maximum temperature yesterday: 91 °F (at 2:20 PM)
Minimum temperature yesterday: 68 °F (at 3:20 AM)
Average temperature yesterday: 78 °F

Past Weeks' High & Low Weather Summary

High95 °F (Sep 19, 2:20 PM)94% (Sep 23, 5:50 AM)30.12 "Hg (Sep 23, 5:50 AM)
Low64 °F (Sep 21, 2:50 PM)30% (Sep 19, 2:50 PM)29.74 "Hg (Sep 21, 4:50 AM)
Average79 °F68%29.90 "Hg
* Reported Sep 19 7:20 AM — Oct 4 7:50 AM, Mersin, Weather by CustomWeather, © 2015

Note: Actual official high and low records may vary slightly from our data, if they occured in-between our weather recording intervals... More about our weather records


Mersin weather history for previous 24 hours

Time TempWeatherWind HumidityBarometerVisibility
7:50 AM
Sun, Oct 4
73 °FPassing clouds.6 mph83%30.07 "HgN/A
6:20 AM72 °FPassing clouds.5 mph83%30.07 "HgN/A
5:50 AM72 °FPassing clouds.6 mph88%30.07 "HgN/A
5:20 AM72 °FPassing clouds.7 mph88%30.07 "HgN/A
4:50 AM72 °FPassing clouds.6 mph88%30.07 "HgN/A
4:20 AM73 °FPassing clouds.5 mph83%30.07 "HgN/A
3:50 AM73 °FPassing clouds.5 mph89%30.07 "HgN/A
3:20 AM73 °FPassing clouds.5 mph89%30.07 "HgN/A
2:50 AM73 °FPassing clouds.5 mph83%30.07 "HgN/A
2:20 AM72 °FPassing clouds.6 mph88%30.07 "HgN/A
1:50 AM72 °FPassing clouds.5 mph88%30.07 "HgN/A
1:20 AM73 °FPassing clouds.6 mph83%30.07 "HgN/A
12:50 AM73 °FPassing clouds.3 mph89%30.07 "HgN/A
12:20 AM73 °FPassing clouds.1 mph89%30.07 "HgN/A
11:50 PM
Sat, Oct 3
73 °FPassing clouds.2 mph89%30.07 "HgN/A
11:20 PM75 °FPassing clouds.1 mph83%30.07 "HgN/A
10:50 PM75 °FPassing clouds.3 mph83%30.07 "HgN/A
10:20 PM75 °FPassing clouds.No wind83%30.07 "HgN/A
9:50 PM75 °FPassing clouds.2 mph83%30.07 "HgN/A
9:20 PM75 °FPassing clouds.3 mph83%30.07 "HgN/A
8:50 PM77 °FPassing clouds.No wind79%30.07 "HgN/A
8:20 PM77 °FPassing clouds.2 mph79%30.07 "HgN/A
7:50 PM77 °FPassing clouds.3 mph74%30.04 "HgN/A
7:20 PM79 °FPassing clouds.6 mph70%30.04 "HgN/A
6:50 PM79 °FPassing clouds.7 mph65%30.04 "HgN/A
6:20 PM82 °FPassing clouds.7 mph55%30.04 "HgN/A
5:50 PM84 °FPassing clouds.9 mph48%30.04 "HgN/A
5:20 PM86 °FPassing clouds.10 mph46%30.04 "HgN/A
4:50 PM88 °FPassing clouds.10 mph40%30.04 "HgN/A
4:20 PM90 °FPassing clouds.10 mph38%30.04 "HgN/A
3:50 PM91 °FPassing clouds.5 mph34%30.04 "HgN/A
3:20 PM91 °FPassing clouds.7 mph32%30.04 "HgN/A
2:50 PM91 °FPassing clouds.5 mph32%30.04 "HgN/A
2:20 PM91 °FPassing clouds.5 mph34%30.04 "HgN/A
1:50 PM90 °FPassing clouds.5 mph33%30.04 "HgN/A
1:20 PM88 °FPassing clouds.6 mph40%30.07 "HgN/A
12:50 PM88 °FPassing clouds.2 mph38%30.07 "HgN/A
12:20 PM86 °FPassing clouds.5 mph40%30.07 "HgN/A
11:50 AM86 °FPassing clouds.2 mph40%30.09 "HgN/A
10:50 AM84 °FPassing clouds.1 mph45%30.09 "HgN/A
10:20 AM84 °FPassing clouds.1 mph45%30.12 "HgN/A
9:50 AM81 °FPassing clouds.2 mph58%30.12 "HgN/A
9:20 AM79 °FPassing clouds.3 mph65%30.12 "HgN/A
8:50 AM77 °FPassing clouds.3 mph69%30.12 "HgN/A
8:20 AM75 °FScattered clouds.3 mph78%30.09 "HgN/A
Weather by CustomWeather, © 2015

See weather overviewHow to use our weather pages